Kimball, NE

4:29 AM MDT on May 25, 2017 (GMT -0600)
Kimball Municipal-Arraj

Weather History for KIBM - June, 2014

Change the Weather History Date:

Friday, June 27, 2014

  Actual Average (KSNY) Record (KSNY)
Temperature  
Mean Temperature 68 °F -  
Max Temperature 81 °F 85 °F 100 °F (1980)
Min Temperature 54 °F 52 °F 38 °F (1985)
Cooling Degree Days 2    
Growing Degree Days 18 (Base 50)    
Moisture  
Dew Point 51 °F    
Average Humidity 66    
Maximum Humidity 92    
Minimum Humidity 28    
Precipitation  
Precipitation 0.22 in - - ()
Sea Level Pressure  
Sea Level Pressure 29.77 in    
Wind  
Wind Speed 7 mph (NNW)    
Max Wind Speed 20 mph    
Max Gust Speed 36 mph    
Visibility 10 miles    
Events Rain , Thunderstorm    
Averages and records for this station are not official NWS values.
T = Trace of Precipitation, MM = Missing Value Source: NWS Daily Summary

Daily Weather History Graph

Daily Weather History Graph

Search for Another Location

Airport or City:

Trip Planner

Search our weather history database for the weather conditions in past years. The results will help you decide how hot, cold, wet, or windy it might be!

Date:

Astronomy

Jun. 27, 2014 Rise Set
Actual Time 6:23 AM CDT 9:31 PM CDT
Civil Twilight 5:50 AM CDT 10:05 PM CDT
Nautical Twilight 5:07 AM CDT 10:48 PM CDT
Astronomical Twilight 4:15 AM CDT 11:39 PM CDT
Moon 6:57 AM CDT (6/27) 9:37 PM CDT (6/27)
Length of Visible Light 16h 15m
Length of Day
15h 07m
New Moon, 0% of the Moon is Illuminated
Jun 27
New Moon
Jul 5
First Quarter
Jul 12
Full
Jul 18
Last Quarter
Jul 26
New

Hourly Weather History & Observations

Time (CDT) Temp. Dew Point Humidity Pressure Visibility Wind Dir Wind Speed Gust Speed Precip Events Conditions
12:15 AM 61.7 °F 51.8 °F 70% 29.78 in 10.0 mi NW 12.7 mph 19.6 mph N/A   Clear
12:35 AM 61.7 °F 50.0 °F 65% 29.74 in 10.0 mi NNW 10.4 mph - N/A   Clear
12:55 AM 60.8 °F 50.2 °F 68% 29.75 in 10.0 mi SSE 9.2 mph - N/A   Clear
1:15 AM 61.2 °F 50.0 °F 67% 29.77 in 10.0 mi Calm Calm - N/A   Clear
1:35 AM 59.0 °F 51.8 °F 77% 29.77 in 10.0 mi East 5.8 mph - N/A   Clear
1:55 AM 60.8 °F 50.2 °F 68% 29.78 in 10.0 mi ESE 6.9 mph - N/A   Clear
2:15 AM 62.1 °F 49.5 °F 63% 29.76 in 10.0 mi ENE 8.1 mph - N/A   Clear
2:35 AM 62.1 °F 51.8 °F 69% 29.75 in 10.0 mi NNE 5.8 mph - N/A   Clear
2:55 AM 60.3 °F 51.6 °F 73% 29.76 in 10.0 mi NNE 5.8 mph - N/A   Clear
3:10 AM 60.4 °F 51.3 °F 72% 29.76 in 10.0 mi East 9.2 mph - N/A   Clear
3:35 AM 62.2 °F 54.5 °F 76% 29.75 in 10.0 mi East 5.8 mph - N/A   Clear
3:55 AM 60.6 °F 54.3 °F 80% 29.77 in 10.0 mi Calm Calm - N/A   Clear
4:15 AM 59.9 °F 54.0 °F 81% 29.79 in 10.0 mi Calm Calm - N/A   Scattered Clouds
4:35 AM 59.2 °F 52.3 °F 78% 29.78 in 10.0 mi North 6.9 mph - N/A   Scattered Clouds
4:55 AM 57.2 °F 52.5 °F 84% 29.79 in 10.0 mi Calm Calm - N/A   Clear
5:15 AM 57.2 °F 52.7 °F 85% 29.77 in 10.0 mi SSE 8.1 mph - N/A   Clear
5:35 AM 56.1 °F 52.9 °F 89% 29.77 in 10.0 mi ENE 4.6 mph - N/A   Clear
5:55 AM 55.8 °F 52.7 °F 89% 29.76 in 10.0 mi ENE 8.1 mph - N/A   Clear
6:15 AM 56.5 °F 53.1 °F 88% 29.76 in 10.0 mi SE 6.9 mph - N/A   Clear
6:35 AM 54.9 °F 51.8 °F 89% 29.76 in 10.0 mi Calm Calm - N/A   Clear
6:55 AM 54.1 °F 51.3 °F 90% 29.76 in 10.0 mi WNW 3.5 mph - N/A   Clear
7:15 AM 54.5 °F 52.2 °F 92% 29.77 in 10.0 mi WNW 5.8 mph - N/A   Clear
7:35 AM 59.2 °F 54.7 °F 85% 29.77 in 10.0 mi WNW 5.8 mph - N/A   Clear
7:55 AM 61.9 °F 54.0 °F 75% 29.79 in 10.0 mi West 6.9 mph - N/A   Scattered Clouds
8:15 AM 62.6 °F 53.8 °F 73% 29.79 in 10.0 mi West 5.8 mph - N/A   Mostly Cloudy
8:35 AM 63.1 °F 54.1 °F 72% 29.80 in 10.0 mi WNW 10.4 mph - N/A   Mostly Cloudy
8:55 AM 65.5 °F 53.4 °F 65% 29.79 in 10.0 mi WNW 11.5 mph - N/A   Scattered Clouds
9:15 AM 67.6 °F 51.8 °F 57% 29.79 in 10.0 mi WNW 9.2 mph - N/A   Clear
9:35 AM 68.2 °F 52.7 °F 58% 29.78 in 10.0 mi WNW 5.8 mph - N/A   Clear
9:55 AM 69.6 °F 51.3 °F 52% 29.78 in 10.0 mi NW 4.6 mph - N/A   Clear
10:15 AM 70.2 °F 50.2 °F 49% 29.79 in 10.0 mi WNW 4.6 mph - N/A   Scattered Clouds
10:35 AM 70.9 °F 50.4 °F 48% 29.78 in 10.0 mi NNW 4.6 mph - N/A   Scattered Clouds
10:55 AM 72.5 °F 49.8 °F 45% 29.78 in 10.0 mi Calm Calm - N/A   Clear
11:15 AM 73.8 °F 50.0 °F 43% 29.78 in 10.0 mi Calm Calm - N/A   Clear
11:35 AM 74.3 °F 48.9 °F 41% 29.78 in 10.0 mi NW 3.5 mph - N/A   Clear
11:55 AM 74.5 °F 48.4 °F 40% 29.79 in 10.0 mi NNE 3.5 mph - N/A   Clear
12:15 PM 75.0 °F 48.4 °F 39% 29.78 in 10.0 mi North 3.5 mph - N/A   Scattered Clouds
12:35 PM 76.6 °F 48.7 °F 37% 29.78 in 10.0 mi NNW 6.9 mph - N/A   Clear
12:55 PM 76.5 °F 48.7 °F 38% 29.78 in 10.0 mi NNW 5.8 mph - N/A   Clear
1:15 PM 77.2 °F 47.8 °F 35% 29.77 in 10.0 mi NNW 4.6 mph - N/A   Clear
1:35 PM 77.9 °F 48.2 °F 35% 29.77 in 10.0 mi ESE 6.9 mph - N/A   Clear
1:55 PM 79.0 °F 48.6 °F 34% 29.76 in 10.0 mi ESE 6.9 mph - N/A   Clear
2:15 PM 78.6 °F 46.6 °F 32% 29.76 in 10.0 mi NE 5.8 mph - N/A   Clear
2:55 PM 81.1 °F 46.0 °F 29% 29.74 in 10.0 mi ESE 10.4 mph 17.3 mph N/A   Scattered Clouds
3:15 PM 81.3 °F 45.1 °F 28% 29.73 in 10.0 mi East 11.5 mph - N/A   Scattered Clouds
3:35 PM 79.3 °F 46.0 °F 31% 29.74 in 10.0 mi SE 10.4 mph - N/A   Scattered Clouds
3:55 PM 78.3 °F 45.7 °F 32% 29.74 in 10.0 mi ESE 6.9 mph - N/A   Mostly Cloudy
4:15 PM 75.7 °F 46.8 °F 36% 29.78 in 10.0 mi NNW 19.6 mph 35.7 mph N/A   Mostly Cloudy
4:35 PM 58.1 °F 47.8 °F 69% 29.81 in 10.0 mi NW 17.3 mph 29.9 mph N/A Thunderstorm Overcast
4:55 PM 55.8 °F 50.2 °F 82% 29.82 in 4.0 mi NNE 11.5 mph 20.7 mph 0.07 in Rain , Thunderstorm Heavy Thunderstorms and Rain
5:15 PM 56.3 °F 51.4 °F 84% 29.81 in 4.0 mi North 17.3 mph - 0.12 in Rain , Thunderstorm Heavy Thunderstorms and Rain
5:35 PM 56.3 °F 52.2 °F 86% 29.82 in 10.0 mi ENE 13.8 mph - 0.15 in Rain Light Rain
5:55 PM 57.4 °F 51.8 °F 82% 29.81 in 10.0 mi NNE 10.4 mph 16.1 mph 0.15 in   Overcast
6:15 PM 58.6 °F 51.4 °F 77% 29.78 in 10.0 mi WNW 11.5 mph - N/A Rain Light Rain
6:35 PM 59.0 °F 52.3 °F 79% 29.77 in 10.0 mi NNW 8.1 mph - N/A Rain Light Rain
6:55 PM 59.5 °F 53.1 °F 79% 29.79 in 10.0 mi WNW 10.4 mph - N/A   Mostly Cloudy
7:15 PM 60.3 °F 52.0 °F 74% 29.75 in 10.0 mi West 9.2 mph - N/A   Mostly Cloudy
7:35 PM 60.3 °F 52.5 °F 76% 29.73 in 10.0 mi WSW 4.6 mph - N/A   Scattered Clouds
7:55 PM 60.8 °F 53.2 °F 76% 29.75 in 10.0 mi West 4.6 mph - N/A   Scattered Clouds
8:15 PM 60.8 °F 53.4 °F 77% 29.73 in 10.0 mi West 5.8 mph - N/A   Scattered Clouds
8:35 PM 61.7 °F 53.8 °F 75% 29.73 in 10.0 mi Calm Calm - N/A   Mostly Cloudy
8:55 PM 61.7 °F 53.2 °F 74% 29.74 in 10.0 mi WNW 3.5 mph - N/A   Scattered Clouds
9:15 PM 61.2 °F 51.1 °F 69% 29.76 in 10.0 mi WNW 6.9 mph - N/A   Clear
9:35 PM 59.5 °F 52.7 °F 78% 29.77 in 10.0 mi NNW 8.1 mph - N/A   Clear
9:55 PM 59.4 °F 52.7 °F 79% 29.79 in 10.0 mi NNW 6.9 mph - N/A   Clear
10:15 PM 59.9 °F 53.1 °F 78% 29.81 in 10.0 mi NW 11.5 mph - N/A   Scattered Clouds
10:35 PM 60.1 °F 53.8 °F 80% 29.79 in 10.0 mi NW 4.6 mph - N/A   Overcast
10:55 PM 61.0 °F 50.7 °F 69% 29.77 in 10.0 mi NW 6.9 mph - N/A   Mostly Cloudy
11:15 PM 60.8 °F 49.8 °F 67% 29.78 in 10.0 mi NW 9.2 mph - N/A   Scattered Clouds
11:35 PM 58.5 °F 50.4 °F 74% 29.79 in 10.0 mi NW 6.9 mph - N/A   Clear
11:55 PM 56.8 °F 51.4 °F 82% 29.81 in 10.0 mi WNW 6.9 mph - N/A   Scattered Clouds